Weather History for Port Aransas, TX

Change the Weather History Date:

Thursday, November 17, 2011

  Actual Average (KCRP) Record (KCRP)
Temperature  
Mean Temperature 62 °F 66 °F  
Max Temperature 66 °F 76 °F 91 °F (1906)
Min Temperature 57 °F 56 °F 33 °F (1959)
Degree Days  
Heating Degree Days 4 3  
Month to date heating degree days 33  
Since 1 July heating degree days 43  
Cooling Degree Days 0 4  
Month to date cooling degree days 86  
Year to date cooling degree days 3437  
Growing Degree Days 12 (Base 50)    
Moisture  
Dew Point 50 °F    
Average Humidity 62    
Maximum Humidity 82    
Minimum Humidity 45    
Precipitation  
Precipitation 0.00 in 0.05 in 2.34 in (1995)
Month to date precipitation 1.29  
Year to date precipitation 29.25  
Snow  
Snow 0.00 in - - ()
Month to date snowfall  
Since 1 July snowfall  
Since 1 September snowfall  
Snow Depth -    
Sea Level Pressure  
Sea Level Pressure 30.30 in    
Wind  
Wind Speed 19 mph (NE)    
Max Wind Speed 24 mph    
Max Gust Speed 32 mph    
Visibility 10 miles    
Events      
T = Trace of Precipitation, MM = Missing Value Source: NWS Daily Summary

Daily Weather History Graph

Daily Weather History Graph

Search for Another Location

Airport:

Trip Planner

Search our weather history database for the weather conditions in past years. The results will help you decide how hot, cold, wet, or windy it might be!

Date:

Astronomy

Nov. 17, 2011 Rise Set
Actual Time 6:50 AM CST 5:35 PM CST
Civil Twilight 6:26 AM CST 6:00 PM CST
Nautical Twilight 5:57 AM CST 6:28 PM CST
Astronomical Twilight 5:29 AM CST 6:56 PM CST
Moon 11:45 PM CST (11/17) 12:09 PM CST (11/17)
Length of Visible Light 11h 34m
Length of Day
10h 44m
Waning Gibbous, 59% of the Moon is Illuminated
Nov 17
Waning Gibbous
Nov 18
Last Quarter
Nov 25
New
Dec 2
First Quarter
Dec 10
Full

Hourly Weather History & Observations

Time (CST) Temp. Dew Point Humidity Pressure Visibility Wind Dir Wind Speed Gust Speed Precip Events Conditions
12:15 AM 66.2 °F 57.2 °F 73% 30.16 in 10.0 mi North 19.6 mph 26.5 mph N/A   Clear
12:35 AM 66.2 °F 57.2 °F 73% 30.17 in 10.0 mi North 18.4 mph 24.2 mph N/A   Clear
12:55 AM 66.2 °F 55.4 °F 68% 30.18 in 10.0 mi North 19.6 mph 24.2 mph N/A   Clear
1:15 AM 64.4 °F 55.4 °F 73% 30.19 in 10.0 mi North 16.1 mph 23.0 mph N/A   Clear
1:35 AM 64.4 °F 55.4 °F 73% 30.19 in 10.0 mi North 19.6 mph 27.6 mph N/A   Clear
1:55 AM 62.6 °F 53.6 °F 72% 30.20 in 10.0 mi North 18.4 mph 25.3 mph N/A   Clear
2:15 AM 62.6 °F 51.8 °F 68% 30.21 in 10.0 mi North 16.1 mph 26.5 mph N/A   Clear
2:55 AM 60.8 °F 50.0 °F 68% 30.22 in 10.0 mi North 18.4 mph 28.8 mph N/A   Clear
3:15 AM 59.0 °F 50.0 °F 72% 30.23 in 10.0 mi North 20.7 mph 25.3 mph N/A   Clear
3:35 AM 59.0 °F 50.0 °F 72% 30.24 in 10.0 mi North 20.7 mph 25.3 mph N/A   Clear
3:55 AM 57.2 °F 50.0 °F 77% 30.24 in 10.0 mi North 20.7 mph 27.6 mph N/A   Clear
4:15 AM 59.0 °F 51.8 °F 77% 30.24 in 10.0 mi North 24.2 mph 27.6 mph N/A   Partly Cloudy
4:55 AM 59.0 °F 51.8 °F 77% 30.26 in 10.0 mi North 20.7 mph 27.6 mph N/A   Overcast
5:15 AM 59.0 °F 51.8 °F 77% 30.26 in 10.0 mi North 23.0 mph - N/A   Scattered Clouds
5:35 AM 59.0 °F 51.8 °F 77% 30.27 in 10.0 mi NNE 19.6 mph 31.1 mph N/A   Clear
5:55 AM 59.0 °F 51.8 °F 77% 30.28 in 10.0 mi NNE 23.0 mph 32.2 mph N/A   Clear
6:15 AM 59.0 °F 53.6 °F 82% 30.29 in 10.0 mi North 23.0 mph 26.5 mph N/A   Partly Cloudy
6:35 AM 59.0 °F 53.6 °F 82% 30.31 in 10.0 mi NNE 23.0 mph 29.9 mph N/A   Mostly Cloudy
6:55 AM 60.8 °F 53.6 °F 77% 30.32 in 10.0 mi NNE 20.7 mph 27.6 mph N/A   Overcast
7:15 AM 60.8 °F 53.6 °F 77% 30.33 in 10.0 mi North 20.7 mph 25.3 mph N/A   Overcast
7:35 AM 60.8 °F 53.6 °F 77% 30.34 in 10.0 mi NNE 16.1 mph 25.3 mph N/A   Overcast
7:55 AM 60.8 °F 53.6 °F 77% 30.35 in 10.0 mi NNE 19.6 mph 26.5 mph N/A   Mostly Cloudy
8:15 AM 60.8 °F 53.6 °F 77% 30.36 in 10.0 mi NNE 21.9 mph - N/A   Mostly Cloudy
8:35 AM 60.8 °F 53.6 °F 77% 30.37 in 10.0 mi NNE 20.7 mph 25.3 mph N/A   Overcast
8:55 AM 62.6 °F 53.6 °F 72% 30.37 in 10.0 mi NNE 18.4 mph - N/A   Mostly Cloudy
9:15 AM 62.6 °F 53.6 °F 72% 30.38 in 10.0 mi NNE 21.9 mph - N/A   Mostly Cloudy
9:35 AM 62.6 °F 53.6 °F 72% 30.38 in 10.0 mi NNE 17.3 mph - N/A   Mostly Cloudy
9:55 AM 64.4 °F 53.6 °F 68% 30.38 in 10.0 mi NNE 18.4 mph - N/A   Mostly Cloudy
10:15 AM 64.4 °F 51.8 °F 64% 30.39 in 10.0 mi NNE 20.7 mph 26.5 mph N/A   Mostly Cloudy
10:35 AM 66.2 °F 50.0 °F 56% 30.38 in 10.0 mi NNE 20.7 mph - N/A   Mostly Cloudy
10:55 AM 66.2 °F 50.0 °F 56% 30.37 in 10.0 mi NNE 20.7 mph 28.8 mph N/A   Partly Cloudy
11:15 AM 66.2 °F 48.2 °F 52% 30.37 in 10.0 mi NE 18.4 mph 26.5 mph N/A   Clear
11:35 AM 66.2 °F 48.2 °F 52% 30.36 in 10.0 mi NE 21.9 mph 27.6 mph N/A   Clear
11:55 AM 66.2 °F 48.2 °F 52% 30.35 in 10.0 mi NE 19.6 mph 26.5 mph N/A   Clear
12:15 PM 66.2 °F 46.4 °F 49% 30.34 in 10.0 mi NE 19.6 mph 23.0 mph N/A   Clear
12:55 PM 64.4 °F 46.4 °F 52% 30.33 in 10.0 mi NE 17.3 mph 24.2 mph N/A   Clear
1:15 PM 66.2 °F 48.2 °F 52% 30.32 in 10.0 mi NE 19.6 mph - N/A   Clear
1:35 PM 66.2 °F 48.2 °F 52% 30.32 in 10.0 mi ENE 16.1 mph 23.0 mph N/A   Clear
1:55 PM 64.4 °F 46.4 °F 52% 30.31 in 10.0 mi NE 18.4 mph 23.0 mph N/A   Clear
2:15 PM 66.2 °F 46.4 °F 49% 30.30 in 10.0 mi ENE 16.1 mph 24.2 mph N/A   Clear
2:35 PM 66.2 °F 46.4 °F 49% 30.30 in 10.0 mi NE 16.1 mph 19.6 mph N/A   Clear
2:55 PM 66.2 °F 48.2 °F 52% 30.30 in 10.0 mi ENE 15.0 mph - N/A   Clear
3:35 PM 66.2 °F 46.4 °F 49% 30.29 in 10.0 mi NE 16.1 mph 19.6 mph N/A   Clear
3:55 PM 66.2 °F 46.4 °F 49% 30.29 in 10.0 mi NE 17.3 mph 23.0 mph N/A   Clear
4:15 PM 64.4 °F 44.6 °F 49% 30.29 in 10.0 mi NE 15.0 mph 19.6 mph N/A   Clear
4:35 PM 64.4 °F 44.6 °F 49% 30.29 in 10.0 mi NE 15.0 mph - N/A   Clear
4:55 PM 64.4 °F 46.4 °F 52% 30.29 in 10.0 mi NE 10.4 mph 16.1 mph N/A   Clear
5:15 PM 64.4 °F 44.6 °F 49% 30.29 in 10.0 mi NE 11.5 mph - N/A   Clear
5:35 PM 64.4 °F 44.6 °F 49% 30.29 in 10.0 mi NE 8.1 mph - N/A   Clear
5:55 PM 64.4 °F 42.8 °F 45% 30.29 in 10.0 mi ENE 13.8 mph - N/A   Clear
6:15 PM 64.4 °F 46.4 °F 52% 30.30 in 10.0 mi ENE 10.4 mph - N/A   Clear
6:35 PM 64.4 °F 42.8 °F 45% 30.30 in 10.0 mi ENE 16.1 mph - N/A   Clear
6:55 PM 64.4 °F 44.6 °F 49% 30.30 in 10.0 mi ENE 12.7 mph - N/A   Clear
7:15 PM 64.4 °F 46.4 °F 52% 30.31 in 10.0 mi East 13.8 mph - N/A   Clear
7:35 PM 64.4 °F 44.6 °F 49% 30.31 in 10.0 mi ENE 15.0 mph 19.6 mph N/A   Clear
7:55 PM 64.4 °F 42.8 °F 45% 30.31 in 10.0 mi ENE 12.7 mph 17.3 mph N/A   Clear
8:15 PM 64.4 °F 44.6 °F 49% 30.31 in 10.0 mi East 12.7 mph - N/A   Clear
8:35 PM 64.4 °F 44.6 °F 49% 30.31 in 10.0 mi East 15.0 mph - N/A   Clear
8:55 PM 64.4 °F 46.4 °F 52% 30.31 in 10.0 mi East 13.8 mph - N/A   Clear
9:15 PM 64.4 °F 48.2 °F 56% 30.31 in 10.0 mi East 10.4 mph - N/A   Clear
9:35 PM 64.4 °F 48.2 °F 56% 30.31 in 10.0 mi East 10.4 mph - N/A   Clear
9:55 PM 64.4 °F 50.0 °F 59% 30.30 in 10.0 mi East 9.2 mph - N/A   Clear
10:15 PM 64.4 °F 51.8 °F 64% 30.30 in 10.0 mi East 6.9 mph - N/A   Clear
10:35 PM 64.4 °F 50.0 °F 59% 30.29 in 10.0 mi East 12.7 mph - N/A   Clear
10:55 PM 64.4 °F 51.8 °F 64% 30.29 in 10.0 mi East 9.2 mph - N/A   Unknown
11:15 PM 66.2 °F 51.8 °F 60% 30.28 in 10.0 mi East 9.2 mph - N/A   Scattered Clouds
11:35 PM 66.2 °F 51.8 °F 60% 30.27 in 10.0 mi East 10.4 mph - N/A   Partly Cloudy